Location: Unspecified
(52.4292°N, 19.3359°E)
Time: 15:16:40
(UTC+02:00)

Transit 2A Rocket - Pass Details

Date: 21 May 2024
Orbit: 583 x 910 km, 66.7° (Epoch: 14 June)

Event Time Altitude Azimuth Distance (km) Brightness Sun altitude
Rises 07:59:01 0° 278° (W) 3,134 7.6 28.0°
Reaches altitude 10° 08:01:50 10° 294° (WNW) 2,276 7.0 28.5°
Maximum altitude 08:05:50 22° 344° (NNW) 1,693 6.8 29.1°
Drops below altitude 10° 08:10:08 10° 34° (NNE) 2,447 8.1 29.7°
Sets 08:13:17 0° 49° (NE) 3,437 8.9 30.2°
